{"data":{"norad_id":69853,"intl_designator":"2026-155F","name":"QIANFAN-224","alt_names":[],"object_type":"PAYLOAD","status":"ACTIVE","operator":null,"country":"PRC","launch_date":"2026-07-05","launch_site_code":"WSC","launch_vehicle":null,"mission":null,"orbit_class":"UNKNOWN","rcs_meters":null,"size_class":null,"mass_kg":null,"dimensions":null,"purposes":[],"wikipedia_slug":null,"has_3d_model":false,"image_url":null,"decayed_at":null,"tle_current":{"epoch":"2026-09-19T20:07:14.864736Z","epoch_age_seconds":78822,"freshness":"FRESH","line1":"1 69853U 26155F   26262.83836649 -.01816590  00000+0 -30266+1 0  9993","line2":"2 69853  89.0066  53.7650 0037117  17.7990 342.4451 13.50418947 10646","mean_motion":13.50418947,"eccentricity":0.0037117,"inclination_deg":89.0066,"raan_deg":53.765,"arg_perigee_deg":17.799,"mean_anomaly_deg":342.4451,"bstar":-3.0266,"rev_number":1064,"period_min":106.63357495087,"perigee_km":1043.0696154296,"apogee_km":1098.3654421386,"semimajor_km":7448.8545287841,"source":"CELESTRAK","updated_at":"2026-09-20T09:00:25.134820Z"}}}